Location: Helsinki
(60.1699°N, 24.9384°E)
Time: 18:51:36
(UTC+02:00)

Transit 4A - Pass Details

Date: 28 October 2020
Orbit: 862 x 982 km, 66.8° (Epoch: 29 November)

Event Time Altitude Azimuth Distance (km) Brightness Sun altitude
Rises 15:34:49 0° 195° (SSW) 3,613 12.0 5.3°
Reaches altitude 10° 15:37:28 10° 188° (S) 2,687 11.1 5.0°
Maximum altitude 15:43:16 40° 121° (ESE) 1,395 8.8 4.5°
Drops below altitude 10° 15:49:11 10° 54° (NE) 2,744 9.7 3.9°
Sets 15:51:54 0° 48° (NE) 3,699 10.3 3.6°
